カタログに戻る

GRUS-3D

運用中科学SSO
NORAD 69919·PAYLOAD·🇫🇮 Finland

打ち上げ Jul 7, 2026 から Vandenberg Space Force Base

Loading…

次のパス (今後24時間)

TLE

最新Source: Space-Track

元期: Sep 13, 2026, 16:28 UTC

1 69919U 26156BC  26256.68613588  .00000769  00000-0  81442-4 0  9995
2 69919  97.7441 155.9974 0005760 292.3925  67.6683 14.91954625 10191

AllMySatでGRUS-3Dをリアルタイム追跡

Download on the App Store